• In Belarus
  • List of Countries
  • For 7 days
  • Water Temperature
  • Satellite Maps
  • Weather Map
  • Weather Widgets
  • user-avatar
    Login

    Hourly Weather Altaj

    Today, 19 January, Saturday

    Time Temperature Precipitation Wind Pressure Humidity
    00:00 -23°C° 0 mm 1 mps 564 mmHg 85%
    01:00 -23°C° 0 mm 1 mps 564 mmHg 84%
    02:00 -23°C° 0 mm 1 mps 564 mmHg 84%
    03:00 -23°C° 0 mm 1 mps 564 mmHg 84%
    04:00 -23°C° 0 mm 1 mps 564 mmHg 84%
    05:00 -23°C° 0 mm 1 mps 564 mmHg 83%
    06:00 -24°C° 0 mm 1 mps 564 mmHg 83%
    07:00 -23°C° 0 mm 1 mps 565 mmHg 82%
    08:00 -23°C° 0 mm 1 mps 565 mmHg 80%
    09:00 -22°C° 0 mm 1 mps 566 mmHg 79%
    10:00 -21°C° 0 mm 1 mps 566 mmHg 79%
    11:00 -20°C° 0 mm 1 mps 567 mmHg 78%
    12:00 -19°C° 0 mm 1 mps 568 mmHg 78%
    13:00 -20°C° 0 mm 1 mps 567 mmHg 78%
    14:00 -20°C° 0 mm 1 mps 567 mmHg 78%
    15:00 -21°C° 0 mm 1 mps 567 mmHg 79%
    16:00 -21°C° 0 mm 1 mps 567 mmHg 75%
    17:00 -22°C° 0 mm 1 mps 567 mmHg 72%
    18:00 -22°C° 0 mm 1 mps 567 mmHg 68%
    19:00 -22°C° 0 mm 1 mps 567 mmHg 65%
    20:00 -22°C° 0 mm 1 mps 567 mmHg 62%
    21:00 -22°C° 0 mm 1 mps 567 mmHg 58%
    22:00 -22°C° 0 mm 1 mps 567 mmHg 55%
    23:00 -21°C° 0 mm 1 mps 567 mmHg 52%

    Tomorrow, 20 January, Sunday

    Time Temperature Precipitation Wind Pressure Humidity
    00:00 -21°C° 0 mm 1 mps 567 mmHg 49%
    01:00 -21°C° 0 mm 1 mps 567 mmHg 47%
    02:00 -21°C° 0 mm 1 mps 567 mmHg 44%
    03:00 -20°C° 0 mm 1 mps 567 mmHg 42%
    04:00 -20°C° 0 mm 1 mps 567 mmHg 41%
    05:00 -20°C° 0 mm 1 mps 567 mmHg 40%
    06:00 -20°C° 0 mm 1 mps 567 mmHg 39%
    07:00 -19°C° 0 mm 1 mps 567 mmHg 39%
    08:00 -18°C° 0 mm 1 mps 568 mmHg 39%
    09:00 -18°C° 0 mm 1 mps 568 mmHg 39%
    10:00 -16°C° 0 mm 1 mps 568 mmHg 43%
    11:00 -15°C° 0 mm 1 mps 568 mmHg 47%
    12:00 -14°C° 0 mm 1 mps 568 mmHg 51%
    13:00 -14°C° 0 mm 1 mps 568 mmHg 48%
    14:00 -14°C° 0 mm 1 mps 567 mmHg 45%
    15:00 -15°C° 0 mm 1 mps 566 mmHg 43%
    16:00 -15°C° 0 mm 1 mps 566 mmHg 41%
    17:00 -16°C° 0 mm 1 mps 566 mmHg 39%
    18:00 -19°C° 0 mm 2 mps 565 mmHg 38%
    19:00 -18°C° 0 mm 2 mps 565 mmHg 36%
    20:00 -18°C° 0 mm 2 mps 565 mmHg 34%
    21:00 -18°C° 0 mm 2 mps 565 mmHg 32%
    22:00 -18°C° 0 mm 2 mps 564 mmHg 31%
    23:00 -18°C° 0 mm 2 mps 564 mmHg 29%

    Day after tomorrow, 21 January, Monday

    Time Temperature Precipitation Wind Pressure Humidity
    00:00 -18°C° 0 mm 2 mps 564 mmHg 28%
    01:00 -18°C° 0 mm 2 mps 564 mmHg 27%
    02:00 -16°C° 0 mm 1 mps 564 mmHg 26%
    03:00 -16°C° 0 mm 1 mps 563 mmHg 26%
    04:00 -15°C° 0 mm 1 mps 563 mmHg 25%
    05:00 -17°C° 0 mm 2 mps 563 mmHg 24%
    06:00 -17°C° 0 mm 2 mps 563 mmHg 24%
    07:00 -17°C° 0 mm 2 mps 563 mmHg 24%
    08:00 -14°C° 0 mm 1 mps 564 mmHg 25%
    09:00 -13°C° 0 mm 1 mps 564 mmHg 26%
    10:00 -12°C° 0 mm 1 mps 564 mmHg 31%
    11:00 -11°C° 0 mm 1 mps 564 mmHg 36%
    12:00 -10°C° 0 mm 1 mps 565 mmHg 42%
    13:00 -11°C° 0 mm 1 mps 564 mmHg 40%
    14:00 -11°C° 0 mm 1 mps 564 mmHg 37%
    15:00 -12°C° 0 mm 1 mps 563 mmHg 35%
    16:00 -15°C° 0 mm 2 mps 562 mmHg 33%
    17:00 -15°C° 0 mm 2 mps 562 mmHg 30%
    18:00 -16°C° 0 mm 2 mps 561 mmHg 28%
    19:00 -16°C° 0 mm 2 mps 561 mmHg 27%
    20:00 -17°C° 0 mm 2 mps 561 mmHg 26%
    21:00 -17°C° 0 mm 2 mps 561 mmHg 24%
    22:00 -17°C° 0 mm 2 mps 561 mmHg 24%
    23:00 -17°C° 0 mm 2 mps 561 mmHg 24%

    22 January, Tuesday

    Time Temperature Precipitation Wind Pressure Humidity
    00:00 -17°C° 0 mm 2 mps 560 mmHg 24%
    01:00 -17°C° 0 mm 2 mps 560 mmHg 25%
    02:00 -17°C° 0 mm 2 mps 560 mmHg 25%
    03:00 -17°C° 0 mm 2 mps 560 mmHg 26%
    04:00 -17°C° 0 mm 2 mps 560 mmHg 27%
    05:00 -15°C° 0 mm 1 mps 560 mmHg 27%
    06:00 -15°C° 0 mm 1 mps 560 mmHg 28%
    07:00 -15°C° 0 mm 1 mps 560 mmHg 29%
    08:00 -15°C° 0 mm 1 mps 561 mmHg 31%
    09:00 -14°C° 0 mm 1 mps 561 mmHg 33%
    10:00 -13°C° 0 mm 1 mps 561 mmHg 39%
    11:00 -13°C° 0 mm 1 mps 561 mmHg 45%
    12:00 -12°C° 0 mm 1 mps 562 mmHg 52%
    13:00 -12°C° 0 mm 1 mps 561 mmHg 50%
    14:00 -13°C° 0 mm 1 mps 561 mmHg 48%
    15:00 -14°C° 0 mm 1 mps 560 mmHg 46%
    16:00 -15°C° 0 mm 1 mps 560 mmHg 44%
    17:00 -16°C° 0 mm 1 mps 560 mmHg 43%
    18:00 -16°C° 0 mm 1 mps 560 mmHg 42%
    19:00 -17°C° 0 mm 1 mps 560 mmHg 42%
    20:00 -17°C° 0 mm 1 mps 560 mmHg 41%
    21:00 -17°C° 0 mm 1 mps 560 mmHg 41%
    22:00 -17°C° 0 mm 1 mps 560 mmHg 40%
    23:00 -17°C° 0 mm 1 mps 560 mmHg 39%

    23 January, Wednesday

    Time Temperature Precipitation Wind Pressure Humidity
    00:00 -17°C° 0 mm 1 mps 560 mmHg 39%
    01:00 -17°C° 0 mm 1 mps 560 mmHg 38%
    02:00 -17°C° 0 mm 1 mps 560 mmHg 38%
    03:00 -17°C° 0 mm 1 mps 560 mmHg 37%
    04:00 -17°C° 0 mm 1 mps 560 mmHg 37%
    05:00 -17°C° 0 mm 1 mps 560 mmHg 36%
    06:00 -17°C° 0 mm 1 mps 560 mmHg 36%
    07:00 -17°C° 0 mm 1 mps 561 mmHg 37%
    08:00 -16°C° 0 mm 1 mps 561 mmHg 38%
    09:00 -16°C° 0 mm 1 mps 562 mmHg 39%
    10:00 -15°C° 0 mm 1 mps 562 mmHg 44%
    11:00 -14°C° 0 mm 1 mps 563 mmHg 49%
    12:00 -12°C° 0 mm 1 mps 563 mmHg 53%
    13:00 -13°C° 0 mm 1 mps 563 mmHg 51%
    14:00 -13°C° 0 mm 1 mps 563 mmHg 50%
    15:00 -14°C° 0 mm 1 mps 562 mmHg 48%
    16:00 -15°C° 0 mm 1 mps 562 mmHg 46%
    17:00 -15°C° 0 mm 1 mps 562 mmHg 44%
    18:00 -16°C° 0 mm 1 mps 562 mmHg 42%
    19:00 -16°C° 0 mm 1 mps 563 mmHg 41%
    20:00 -16°C° 0 mm 1 mps 563 mmHg 40%
    21:00 -16°C° 0 mm 1 mps 563 mmHg 40%
    22:00 -16°C° 0 mm 1 mps 563 mmHg 39%
    23:00 -16°C° 0 mm 1 mps 563 mmHg 39%

    24 January, Thursday

    Time Temperature Precipitation Wind Pressure Humidity
    00:00 -16°C° 0 mm 1 mps 564 mmHg 39%
    01:00 -18°C° 0 mm 2 mps 564 mmHg 39%
    02:00 -18°C° 0 mm 2 mps 564 mmHg 39%
    03:00 -18°C° 0 mm 2 mps 564 mmHg 39%
    04:00 -18°C° 0 mm 2 mps 564 mmHg 40%
    05:00 -18°C° 0 mm 2 mps 564 mmHg 41%
    06:00 -18°C° 0 mm 2 mps 564 mmHg 41%
    07:00 -18°C° 0 mm 2 mps 565 mmHg 44%
    08:00 -17°C° 0 mm 2 mps 565 mmHg 46%
    09:00 -17°C° 0 mm 2 mps 566 mmHg 48%
    10:00 -16°C° 0 mm 2 mps 566 mmHg 52%
    11:00 -15°C° 0 mm 2 mps 566 mmHg 55%
    12:00 -13°C° 0 mm 2 mps 567 mmHg 59%
    13:00 -14°C° 0 mm 2 mps 566 mmHg 58%
    14:00 -14°C° 0 mm 2 mps 566 mmHg 57%
    15:00 -15°C° 0 mm 2 mps 566 mmHg 56%
    16:00 -15°C° 0 mm 2 mps 566 mmHg 56%
    17:00 -16°C° 0 mm 2 mps 566 mmHg 55%
    18:00 -17°C° 0 mm 2 mps 565 mmHg 54%
    19:00 -17°C° 0 mm 2 mps 566 mmHg 53%
    20:00 -17°C° 0 mm 2 mps 566 mmHg 53%
    21:00 -17°C° 0 mm 2 mps 566 mmHg 52%
    22:00 -17°C° 0 mm 2 mps 566 mmHg 52%
    23:00 -17°C° 0 mm 2 mps 566 mmHg 52%
    Show more